Location: Stara Lesna
(49.1528°N, 20.2911°E)
Time: 05:51:59
(UTC+01:00)

ISS - Visible Passes

Search period start: 31 October 2020 00:00
Search period end: 10 November 2020 00:00
Orbit: 417 x 420 km, 51.6° (Epoch: 30 October)

Date Brightness Start Highest point End Pass type
(mag) Time Alt. Az. Time Alt. Az. Time Alt. Az.
31 Oct -3.6 04:24:55 63° N 04:24:55 63° N 04:28:11 10° ENE visible
01 Nov -1.2 03:39:08 21° ENE 03:39:08 21° ENE 03:40:23 10° ENE visible
01 Nov -3.4 05:12:05 22° WNW 05:14:02 54° N 05:17:20 10° E visible
02 Nov -3.4 04:26:17 53° N 04:26:17 53° N 04:29:29 10° ENE visible
03 Nov -1.1 03:40:28 20° ENE 03:40:28 20° ENE 03:41:41 10° ENE visible
03 Nov -3.6 05:13:25 23° WNW 05:15:23 68° NNE 05:18:44 10° E visible
04 Nov -3.5 04:27:37 58° NNE 04:27:37 58° NNE 04:30:54 10° E visible
05 Nov -1.0 03:41:50 20° ENE 03:41:50 20° ENE 03:43:02 10° E visible
05 Nov -3.8 05:14:48 24° WNW 05:16:39 76° SSW 05:20:00 10° ESE visible
06 Nov -3.7 04:29:03 78° ENE 04:29:03 78° ENE 04:32:15 10° ESE visible
07 Nov -1.0 03:43:21 19° E 03:43:21 19° E 03:44:26 10° E visible
07 Nov -3.0 05:16:19 24° W 05:17:46 37° SSW 05:20:55 10° SE visible
08 Nov -3.1 04:30:41 46° SSE 04:30:41 46° SSE 04:33:23 10° SE visible
09 Nov -0.8 03:45:06 14° ESE 03:45:06 14° ESE 03:45:43 10° ESE visible
09 Nov -1.9 05:18:04 17° SW 05:18:43 18° SW 05:21:03 10° S visible
